Odessa, TX

7:43 PM CDT on April 22, 2018 (GMT -0500)
Odessa-Schlemeyer

Weather History for KODO - January, 2013

Change the Weather History Date:

Friday, January 25, 2013

  Actual Average (KMAF) Record (KMAF)
Temperature  
Mean Temperature 58 °F -  
Max Temperature 68 °F 57 °F 83 °F (1952)
Min Temperature 48 °F 31 °F 13 °F (1940)
Degree Days  
Heating Degree Days 7    
Growing Degree Days 8 (Base 50)    
Moisture  
Dew Point 34 °F    
Average Humidity 43    
Maximum Humidity 57    
Minimum Humidity 26    
Precipitation  
Precipitation 0.00 in - - ()
Sea Level Pressure  
Sea Level Pressure 30.06 in    
Wind  
Wind Speed 6 mph (NNE)    
Max Wind Speed 16 mph    
Max Gust Speed 23 mph    
Visibility 10 miles    
Events      
Averages and records for this station are not official NWS values.
T = Trace of Precipitation, MM = Missing Value Source: NWS Daily Summary

Daily Weather History Graph

Daily Weather History Graph

Search for Another Location

Airport or City:

Astronomy

Jan. 25, 2013 Rise Set
Actual Time 7:46 AM CST 6:17 PM CST
Civil Twilight 7:20 AM CST 6:43 PM CST
Nautical Twilight 6:51 AM CST 7:12 PM CST
Astronomical Twilight 6:22 AM CST 7:42 PM CST
Moon 5:16 PM CST (1/25) 6:27 AM CST (1/25)
Length of Visible Light 11h 22m
Length of Day
10h 30m
Waxing Gibbous, 98% of the Moon is Illuminated
Jan 25
Waxing Gibbous
Jan 26
Full
Feb 3
Last Quarter
Feb 10
New
Feb 17
First Quarter

Hourly Weather History & Observations

Time (CST) Temp. Dew Point Humidity Pressure Visibility Wind Dir Wind Speed Gust Speed Precip Events Conditions
12:53 AM 57.0 °F 30.0 °F 36% 30.02 in 10.0 mi SSW 5.8 mph - N/A   Clear
1:53 AM 53.1 °F 33.1 °F 47% 30.02 in 10.0 mi SSW 4.6 mph - N/A   Clear
2:53 AM 50.0 °F 34.0 °F 54% 30.03 in 10.0 mi SW 4.6 mph - N/A   Clear
3:53 AM 48.9 °F 34.0 °F 56% 30.02 in 10.0 mi SW 3.5 mph - N/A   Clear
4:53 AM 48.9 °F 34.0 °F 56% 30.02 in 10.0 mi Calm Calm - N/A   Clear
5:53 AM 48.0 °F 33.1 °F 56% 30.02 in 10.0 mi NW 6.9 mph - N/A   Clear
6:53 AM 53.1 °F 32.0 °F 45% 30.03 in 10.0 mi WNW 6.9 mph - N/A   Clear
7:53 AM 53.1 °F 32.0 °F 45% 30.05 in 10.0 mi NNW 9.2 mph - N/A   Clear
8:53 AM 55.9 °F 35.1 °F 45% 30.07 in 10.0 mi WNW 6.9 mph - N/A   Clear
9:53 AM 64.0 °F 37.0 °F 37% 30.07 in 10.0 mi NNW 15.0 mph 23.0 mph N/A   Clear
10:53 AM 66.0 °F 34.0 °F 30% 30.10 in 10.0 mi North 16.1 mph - N/A   Clear
11:53 AM 64.9 °F 34.0 °F 32% 30.12 in 10.0 mi North 10.4 mph - N/A   Clear
12:53 PM 64.9 °F 33.1 °F 31% 30.09 in 10.0 mi North - - N/A   Unknown
1:53 PM 66.9 °F 33.1 °F 28% 30.07 in 10.0 mi ENE 4.6 mph - N/A   Clear
2:53 PM 68.0 °F 32.0 °F 26% 30.06 in 10.0 mi North 3.5 mph - N/A   Clear
3:53 PM 68.0 °F 33.1 °F 27% 30.05 in 10.0 mi NE 5.8 mph - N/A   Clear
4:53 PM 64.9 °F 32.0 °F 29% 30.05 in 10.0 mi NE 8.1 mph - N/A   Clear
5:53 PM 61.0 °F 34.0 °F 36% 30.06 in 10.0 mi ENE 8.1 mph - N/A   Clear
6:53 PM 57.9 °F 35.1 °F 42% 30.07 in 10.0 mi ENE 9.2 mph - 0.00 in   Clear
7:53 PM 55.0 °F 36.0 °F 49% 30.09 in 10.0 mi NE 6.9 mph - 0.00 in   Mostly Cloudy
8:53 PM 55.0 °F 35.1 °F 47% 30.08 in 10.0 mi East 5.8 mph - N/A   Overcast
9:53 PM 51.1 °F 35.1 °F 54% 30.09 in 10.0 mi ENE 5.8 mph - N/A   Partly Cloudy
10:53 PM 51.1 °F 36.0 °F 56% 30.10 in 10.0 mi East 4.6 mph - N/A   Overcast
11:53 PM 50.0 °F 35.1 °F 57% 30.10 in 10.0 mi East 4.6 mph - N/A   Clear